Tracking 19717 objects as of 25-Jun-2019
HD Live streaming from Space Station
objects crossing your sky now

FENGYUN 1C DEB

Track FENGYUN 1C DEB now!
10-day predictions


NORAD ID: 30358
Int'l Code: 1999-025ABV
Perigee: 802.4 km
Apogee: 944.2 km
Inclination: 98.7 °
Period: 102.3 minutes
Semi major axis: 7244 km
RCS: 0.037 m2 (small)
Launch date: May 10, 1999
Source: People's Republic of China (PRC)
Launch site: Taiyaun Space Center, China (TSC)

Note: This is SATELLITE DEBRIS
aabbcc
Your satellite tracking list
Your tracking list is empty




NASA's NSSDC Master Catalog

Two Line Element Set (TLE):
1 30358U 99025ABV 19175.48198123 +.00000616 +00000-0 +37003-3 0  9992
2 30358 098.7211 060.1885 0097823 089.9186 034.8301 14.08019634635725
Source of the keplerian elements: AFSPC